Theta_e
309 311 312 310 309 310 313 313 313 310 306 305 306 306 307 308 308 309 316 317 315 318 316 314 314 319 320 319 316 319 320 320 322 320 318 318 321 322 326 327 329 330 332 334 331 333 336 332 333 336 334 329 328 328
306 306 307 308 309 308 311 313 314 313 309 306 306 306 307 307 308 308 309 313 311 315 316 314 313 315 318 318 320 319 321 319 325 322 323 323 327 321 323 327 323 324 326 332 333 335 330 328 328 327 326 327 328 328
307 306 306 306 308 308 308 311 314 314 313 308 307 307 307 307 308 308 308 309 311 315 318 322 323 320 324 320 317 319 319 319 320 324 322 320 320 317 320 321 324 322 325 330 328 329 327 326 326 326 326 326 326 327
307 307 306 304 307 308 308 310 312 314 314 314 309 309 309 308 309 308 308 309 310 317 319 323 326 324 325 324 323 320 318 318 317 321 320 317 320 321 320 321 321 323 324 323 326 326 327 326 326 326 325 326 327 328
307 307 306 305 306 307 308 308 309 312 314 315 311 310 310 310 309 308 319 315 315 317 319 320 317 323 322 323 322 320 319 320 321 321 319 319 321 322 321 320 322 324 324 325 327 326 325 326 325 326 327 327 329 330
306 307 306 305 306 308 309 308 309 310 313 314 313 310 309 309 308 311 322 319 319 320 321 318 319 320 322 323 322 322 323 323 323 322 322 324 326 324 321 322 323 328 328 328 327 326 325 325 327 326 326 329 330 331
306 306 306 306 306 307 308 309 309 310 313 315 313 310 308 308 308 310 323 324 321 320 319 320 321 324 322 322 322 323 324 324 324 323 323 323 324 324 319 321 328 328 327 327 327 326 326 326 326 325 325 328 329 330
306 306 306 306 306 306 308 309 311 311 312 315 314 315 310 312 314 318 318 315 318 313 318 319 319 322 322 323 324 324 324 323 324 323 324 323 324 324 322 322 329 328 327 326 326 325 325 324 324 327 326 327 327 328
308 308 307 306 306 306 307 310 312 313 312 315 316 317 315 318 322 323 322 321 321 315 322 322 320 322 326 326 326 326 325 323 324 321 321 323 320 322 322 327 327 327 326 325 325 324 324 324 326 325 325 324 324 324
308 309 308 307 307 307 307 310 312 314 312 314 318 319 322 322 321 316 319 318 319 317 317 319 320 317 321 326 326 323 325 320 321 321 324 321 320 324 328 327 326 325 324 324 323 323 323 325 324 324 324 324 323 323
307 307 307 307 307 307 307 310 314 314 313 314 315 317 318 315 314 320 321 320 323 322 322 322 321 315 317 324 323 326 324 323 325 321 322 322 327 326 325 324 324 324 324 323 322 321 323 324 324 322 324 323 323 322
310 309 308 308 308 307 308 312 314 313 312 313 314 315 315 315 316 319 322 322 323 324 325 324 325 323 322 326 324 325 324 322 326 324 327 331 326 326 325 324 324 324 324 322 322 321 321 323 323 322 322 322 322 321
311 311 311 309 308 309 312 314 313 312 312 314 317 317 318 319 314 321 321 320 322 324 325 326 323 326 326 324 324 323 326 324 323 324 326 326 329 325 325 325 323 322 321 321 321 322 322 322 323 323 322 321 320 320
311 311 312 312 312 313 313 313 313 313 312 317 319 315 319 323 320 318 321 322 325 325 325 325 324 325 326 324 322 326 323 323 327 327 327 325 326 326 325 324 323 322 322 322 322 322 322 323 323 323 323 322 320 320
310 310 311 311 311 310 310 310 312 311 311 316 318 314 317 320 320 321 322 322 324 323 322 322 322 324 323 324 322 323 326 327 325 325 327 329 327 326 325 324 324 323 322 322 322 322 323 323 323 322 322 321 320 319
309 309 310 310 310 309 308 308 309 311 314 315 316 316 318 317 318 318 318 321 321 322 322 321 321 323 324 323 325 326 327 326 325 325 329 328 327 327 326 324 323 322 322 322 323 323 323 323 321 321 321 320 320 319
308 308 308 308 308 308 307 307 310 314 314 315 316 316 316 316 317 317 320 319 320 320 322 321 321 323 321 323 325 323 325 325 328 329 328 326 326 326 325 324 323 322 322 319 319 320 321 322 321 320 319 320 320 319
306 306 306 306 306 307 306 309 310 313 315 314 315 315 315 315 317 317 318 319 320 319 320 321 322 324 325 325 325 323 324 326 323 323 326 325 324 323 323 323 322 318 316 317 318 318 318 318 318 318 318 319 318 323
305 305 305 305 306 306 306 310 310 312 314 314 315 315 315 316 316 316 317 317 318 320 319 320 321 323 322 321 320 321 321 323 325 325 325 325 321 318 320 322 320 317 318 318 318 317 316 316 316 318 319 318 321 322
304 305 305 305 304 305 306 309 311 312 312 313 312 312 313 314 316 316 316 318 319 320 320 321 320 320 320 320 320 321 322 323 323 324 326 323 320 319 319 320 321 321 319 318 318 319 317 317 317 318 320 321 320 320
305 306 306 305 304 304 305 307 309 310 311 311 312 313 314 316 317 317 318 318 320 320 319 320 319 319 320 321 321 320 322 321 323 324 324 323 322 321 319 319 320 319 320 319 317 318 317 317 318 318 319 320 319 319
305 305 305 304 305 305 305 306 308 309 309 311 311 312 312 314 315 317 317 319 320 319 319 319 319 320 320 319 319 320 320 320 321 323 323 323 323 323 321 321 322 320 320 320 319 319 319 319 318 318 319 320 320 319
304 305 306 306 305 306 307 307 308 309 311 313 313 314 315 318 319 319 319 319 319 319 319 319 319 320 319 319 320 322 321 320 319 321 323 321 320 321 319 320 322 321 320 320 319 319 319 320 318 319 320 318 318 318
304 306 306 307 306 306 307 308 309 310 311 313 314 317 316 317 319 320 319 319 319 319 320 321 319 319 320 320 322 322 321 320 319 320 322 322 322 319 319 320 319 320 319 320 321 320 320 319 318 318 318 318 317 316
305 305 306 306 307 307 309 311 311 312 313 314 315 315 315 318 319 321 321 321 322 321 321 322 321 321 321 322 322 321 320 320 320 320 321 321 321 320 319 319 319 319 320 320 320 320 319 318 318 317 317 318 318 317
304 306 305 308 309 309 311 312 313 313 314 315 315 315 317 319 321 321 321 321 321 322 321 321 321 321 322 323 323 323 322 322 321 320 320 321 322 320 319 320 320 320 320 320 319 319 319 319 319 318 318 318 318 318
305 306 307 308 310 310 310 310 310 311 313 314 316 318 319 320 321 320 318 319 321 320 321 322 321 320 321 322 323 323 322 322 321 320 321 321 321 321 320 320 320 320 320 319 320 319 320 320 319 319 319 319 318 318
305 306 309 310 309 310 311 311 312 313 313 314 316 320 320 319 319 318 319 321 320 319 320 320 321 320 320 321 322 323 323 322 321 321 322 322 322 321 320 321 321 321 321 320 320 320 320 320 320 320 320 319 319 318
305 306 307 308 310 311 311 311 311 311 313 315 316 317 318 317 317 318 318 318 319 319 319 320 322 322 322 321 322 323 323 323 323 323 322 320 321 321 320 320 320 320 321 321 320 319 319 318 318 320 320 320 318 317
306 306 307 308 310 311 311 310 310 310 311 312 313 314 314 315 316 317 317 317 317 318 318 321 321 323 323 321 322 322 322 323 322 322 320 319 319 321 321 320 320 320 321 320 319 319 319 320 319 319 318 318 319 318
308 309 309 308 309 309 309 310 311 311 312 312 313 314 314 314 315 316 317 318 318 318 318 319 318 319 320 321 322 323 323 322 323 323 322 320 318 319 321 321 320 320 319 319 319 319 319 319 319 319 317 317 315 319
309 309 309 309 309 310 311 311 312 312 312 313 314 315 315 316 316 318 318 317 318 318 318 319 318 318 320 322 322 321 321 322 322 321 320 319 319 320 320 321 321 320 320 319 319 319 320 321 320 320 319 318 317 317
310 310 310 310 312 313 315 313 314 316 316 316 316 316 316 317 318 318 319 319 319 318 318 318 318 319 319 321 320 321 322 321 322 321 321 320 320 321 321 321 321 321 321 320 319 320 321 320 320 321 320 319 320 320
Wind_Speed
18 19 19 20 21 21 20 19 19 19 17 16 15 14 13 12 11 7 6 4 6 6 23 18 17 10 7 3 1 8 5 8 6 5 3 3 3 4 1 3 6 2 1 1 2 3 2 14 4 6 4 5 8 11
19 20 20 20 20 20 20 20 19 19 18 17 16 14 13 12 11 8 3 8 13 16 18 23 27 24 22 16 10 4 1 3 1 3 1 1 2 2 1 2 5 4 2 3 3 5 6 19 16 11 13 12 12 12
19 21 20 19 19 20 20 20 19 18 18 18 17 15 14 12 13 12 10 9 10 10 19 10 5 4 8 17 15 5 2 3 4 6 4 2 2 3 0 3 2 5 1 5 5 1 7 16 14 14 15 16 17 19
19 21 21 19 19 20 20 19 19 18 19 19 18 17 16 14 13 13 12 8 7 6 4 6 8 4 6 7 11 14 16 17 10 9 1 2 2 4 3 3 4 4 3 5 3 3 6 11 11 12 15 17 20 18
18 20 20 19 19 20 20 20 20 19 19 20 20 19 17 14 12 10 6 1 5 2 4 14 17 8 4 9 10 11 12 9 7 2 1 3 4 1 2 2 2 1 4 4 3 3 5 6 13 15 18 20 18 15
18 20 20 19 19 20 20 21 20 19 19 19 20 19 16 13 9 3 2 2 1 3 6 4 8 9 5 13 14 10 10 9 9 4 4 4 3 1 2 2 2 20 21 12 8 10 8 11 13 18 19 21 18 16
18 20 20 20 18 19 20 21 21 19 18 18 18 16 14 10 6 3 0 2 3 4 4 7 8 6 14 11 15 11 11 9 10 9 5 5 11 2 3 4 11 17 17 13 9 5 11 14 13 15 15 15 17 14
19 19 20 20 19 19 20 21 21 20 18 16 15 14 12 5 2 1 1 5 6 6 4 2 4 7 11 7 5 10 13 9 6 7 3 3 5 2 2 3 18 17 14 12 10 10 10 9 11 11 11 12 14 15
19 20 19 20 20 19 20 21 20 20 18 14 15 11 2 1 2 2 7 8 9 6 3 3 2 4 4 6 6 7 8 2 6 3 4 3 1 3 6 20 16 12 10 9 7 5 5 8 9 10 10 12 13 15
18 19 19 19 19 19 20 20 21 20 18 13 7 2 1 2 6 12 4 3 4 5 5 5 5 4 7 5 3 1 2 2 1 5 4 4 4 6 21 22 19 13 10 7 10 8 6 8 7 7 8 9 13 18
18 18 18 18 17 18 18 20 21 19 16 10 5 3 5 5 6 3 3 4 5 3 7 7 12 6 8 0 2 3 1 0 1 5 4 2 1 2 16 17 15 13 9 7 5 6 8 6 4 5 6 10 14 18
20 19 18 17 15 15 16 18 18 14 13 14 12 17 10 2 3 2 3 3 4 4 4 3 7 11 5 4 1 2 0 2 4 3 1 3 2 15 18 15 11 6 2 4 4 4 6 5 1 2 6 12 16 18
20 18 17 15 14 13 14 13 13 15 15 9 3 3 3 3 1 4 3 3 2 1 3 11 5 6 3 3 1 2 1 4 2 1 3 4 11 14 13 9 5 3 4 4 4 4 7 2 1 3 7 12 15 16
21 18 15 13 12 10 9 10 12 12 7 3 3 5 4 4 4 4 3 3 3 3 0 7 5 6 7 2 2 2 4 2 2 2 5 4 16 12 8 4 1 4 4 5 6 8 5 2 4 7 11 15 14 11
18 17 15 12 9 10 12 12 11 8 3 4 4 4 5 8 15 11 9 1 2 3 2 4 6 1 4 3 1 1 2 3 4 4 3 15 15 11 5 0 2 2 5 6 7 8 7 10 12 13 13 13 10 9
17 16 12 10 11 12 16 17 11 6 4 5 7 4 10 9 6 13 18 9 5 3 4 4 3 1 5 2 2 4 2 4 3 2 15 18 13 7 3 1 2 4 7 10 11 12 13 12 11 9 8 9 9 9
14 11 9 12 14 12 15 15 4 6 6 5 8 11 17 19 15 18 12 11 4 2 2 3 2 3 3 2 3 4 3 2 4 12 15 13 10 5 4 5 3 7 10 11 10 9 7 7 7 7 7 7 5 7
16 14 14 12 14 13 13 5 5 6 7 12 8 16 20 21 19 13 15 9 5 6 5 3 4 2 3 3 2 3 6 7 8 11 13 9 8 7 5 4 1 5 9 9 9 9 8 6 6 6 4 5 3 6
15 14 14 14 14 10 5 4 6 5 8 12 17 21 22 22 21 18 19 19 15 9 7 7 3 3 3 4 3 12 10 12 7 16 15 11 7 6 5 4 1 3 7 9 8 11 15 10 9 8 5 6 13 18
15 13 10 9 7 4 4 5 4 6 5 6 14 20 19 19 20 20 20 17 16 12 9 4 4 9 8 13 14 12 10 10 4 8 14 13 9 8 7 3 2 1 1 5 8 8 9 8 11 13 10 17 19 22
8 3 3 6 9 11 4 4 5 5 8 7 14 14 11 15 17 18 19 18 18 10 7 12 16 17 13 10 14 16 13 9 4 5 12 14 12 10 8 5 5 4 3 3 1 6 8 7 7 11 20 17 11 8
6 3 2 6 4 5 6 7 6 8 6 10 15 9 8 7 13 16 15 10 10 21 20 22 24 20 17 22 18 17 16 14 7 3 6 10 13 14 14 11 9 7 7 8 4 1 2 2 4 2 3 3 4 6
4 4 3 4 5 5 5 6 4 4 3 4 9 4 5 4 5 5 6 7 12 22 25 26 27 24 25 21 17 16 13 8 10 16 10 5 12 17 12 12 15 12 11 11 6 4 3 2 3 3 2 5 6 6
6 3 3 4 7 4 4 4 5 4 4 4 3 4 4 4 4 2 3 5 18 18 16 18 23 20 18 21 21 20 16 16 9 14 10 10 16 18 15 15 14 13 12 12 12 7 8 8 9 7 5 3 4 8
2 4 4 6 6 4 3 3 4 4 3 3 3 3 3 4 2 3 3 5 9 6 8 7 13 18 20 17 18 22 21 23 18 18 14 16 20 16 15 11 15 13 11 16 14 14 9 8 10 10 9 8 9 10
4 5 6 5 5 4 3 3 1 2 3 2 4 6 4 2 3 3 2 9 5 6 7 5 8 6 10 10 10 12 20 22 26 20 19 17 13 19 15 12 10 11 9 12 13 9 13 16 13 14 14 15 13 13
4 4 7 8 5 4 4 6 7 3 4 3 3 3 3 2 2 1 9 7 5 6 0 5 9 8 7 9 8 9 15 16 21 20 14 14 18 19 20 17 17 10 11 13 11 16 10 9 12 18 15 14 17 14
7 5 5 4 8 11 3 2 2 3 3 7 4 2 6 2 2 10 8 3 9 17 21 15 8 10 11 9 6 4 6 15 20 15 12 19 13 15 13 17 23 15 11 17 7 7 7 4 9 16 16 14 17 20
6 8 6 10 8 6 8 7 5 6 9 6 1 2 3 6 15 22 23 23 20 18 16 16 4 5 8 8 7 6 6 7 13 20 22 10 12 13 15 16 16 16 22 19 15 10 9 5 6 6 9 23 13 11
8 13 7 7 4 5 9 14 14 19 18 19 17 24 28 26 23 20 25 25 22 19 22 3 6 3 2 2 5 8 9 8 12 15 15 13 11 11 14 10 9 10 18 23 19 16 13 13 12 10 10 12 14 13
7 5 8 12 8 20 26 26 26 26 28 29 29 26 30 32 30 23 20 19 18 17 15 11 8 9 9 5 4 5 5 8 8 20 24 21 18 14 11 11 11 12 13 21 18 16 15 18 20 16 13 14 15 15
6 6 9 6 15 22 22 25 26 25 27 24 25 24 26 24 19 22 6 9 13 15 12 10 10 7 7 9 8 6 15 12 7 6 23 23 16 14 17 14 13 7 3 6 13 21 11 14 12 12 16 15 12 16
11 11 11 12 6 5 6 6 5 6 7 7 12 22 23 18 8 8 8 10 12 13 13 9 6 7 11 14 21 8 10 9 1 5 8 22 21 16 14 17 16 9 6 7 7 10 8 13 19 17 18 17 13 16
Wind_Direction
335 335 338 343 346 348 347 347 348 349 348 347 346 347 345 342 345 4 189 236 312 264 286 279 261 261 311 350 84 319 17 0 22 56 107 237 200 247 343 265 297 76 350 29 81 78 113 322 341 91 215 352 340 9
338 337 333 335 341 343 345 346 347 349 349 346 345 343 341 337 334 336 285 256 269 262 264 285 278 262 259 259 276 307 259 255 314 80 9 104 326 357 127 310 340 28 180 157 107 161 174 70 90 67 37 31 35 25
336 339 337 333 336 340 340 342 344 345 347 345 343 339 336 331 325 322 318 305 287 286 300 284 349 246 256 248 222 239 260 68 3 358 184 207 257 129 357 267 360 329 38 126 89 33 121 76 61 49 34 33 12 356
331 335 336 335 335 339 338 337 338 338 340 341 339 335 330 324 319 317 317 307 296 303 286 288 312 280 204 216 224 225 247 276 297 309 213 155 188 187 214 225 135 236 44 97 42 50 77 47 47 48 36 20 12 13
325 330 332 335 336 336 336 335 334 332 333 334 334 331 326 322 318 320 338 232 177 307 286 291 306 247 270 204 226 206 238 251 260 275 77 234 233 116 304 69 7 336 174 119 181 164 131 53 36 36 44 35 28 26
317 322 326 330 335 337 336 333 332 329 327 326 329 327 324 321 317 317 196 175 246 326 310 308 307 287 250 203 200 216 218 235 249 211 228 247 273 46 105 180 295 100 100 114 131 104 69 39 41 33 30 36 42 47
312 314 318 324 329 334 336 336 332 329 325 320 324 325 323 318 303 241 347 184 215 250 280 303 297 284 185 189 202 227 241 229 249 255 225 253 284 282 123 182 172 119 111 102 81 59 59 46 41 19 20 27 35 38
310 309 311 316 322 327 332 336 337 333 327 316 317 321 319 317 317 356 317 242 245 257 249 274 273 308 196 196 205 238 234 239 240 230 231 220 288 161 228 213 141 124 115 98 89 76 69 41 20 46 36 27 25 14
310 308 306 310 316 321 329 334 336 340 333 316 317 318 311 64 28 337 301 271 253 242 271 268 249 272 353 243 241 228 206 145 233 190 234 159 272 237 215 145 134 133 114 105 78 45 19 36 75 49 32 18 7 349
318 311 307 306 312 317 325 331 333 338 341 329 326 334 138 187 289 308 277 228 214 208 229 245 263 271 335 333 332 301 43 184 121 248 226 151 234 267 155 140 133 126 117 114 80 41 26 103 77 47 29 4 341 328
324 318 311 307 310 313 319 328 332 337 348 355 331 274 266 295 294 242 242 195 190 236 218 237 229 229 265 8 255 9 234 274 87 266 144 188 105 138 134 121 115 112 103 75 42 16 46 5 352 15 10 337 321 336
316 318 316 311 310 311 318 324 328 336 341 325 300 291 297 245 235 244 222 218 179 230 210 224 253 212 229 244 99 314 134 30 237 301 113 123 250 149 127 112 102 96 40 5 26 3 326 346 314 313 313 316 317 321
309 312 315 315 313 313 316 323 327 329 331 322 316 285 231 228 353 217 236 263 255 294 31 360 336 344 209 31 352 70 221 240 302 21 226 200 147 124 120 122 109 63 6 327 346 1 11 27 173 310 309 318 325 323
301 304 309 311 316 318 321 324 325 330 330 298 266 295 204 214 229 200 225 236 294 321 358 212 250 75 291 171 196 204 242 9 265 237 221 195 156 136 136 130 53 353 319 305 313 331 327 299 292 291 299 306 314 318
297 304 300 301 296 304 315 322 320 319 279 267 264 238 241 268 328 350 12 3 59 11 114 98 46 84 305 285 258 29 276 243 220 230 210 152 155 152 146 167 301 292 318 319 310 306 289 292 298 297 291 291 294 305
301 312 312 293 287 306 316 312 295 261 242 242 237 266 281 310 313 334 337 347 359 327 125 93 107 19 246 224 289 225 239 223 254 225 150 151 155 154 150 216 305 321 314 309 302 296 295 297 298 287 278 282 292 295
297 308 284 287 306 315 321 311 241 216 230 230 242 249 259 273 280 304 303 325 303 300 137 169 140 181 305 265 234 214 223 216 158 143 161 165 159 166 232 255 287 314 314 317 319 322 317 307 304 296 278 272 270 264
286 296 291 296 309 322 318 241 239 243 238 242 254 261 269 278 282 290 293 293 262 224 171 197 144 195 237 221 11 316 343 142 154 153 193 171 166 190 205 209 286 355 22 27 34 27 357 339 323 307 285 216 196 144
290 292 280 276 287 299 285 243 224 263 249 265 265 269 272 279 273 274 275 273 261 253 172 175 172 203 232 239 259 357 343 324 204 179 189 187 171 155 178 190 169 69 26 33 42 36 37 53 46 60 67 139 148 140
286 283 281 265 247 223 260 266 250 261 268 286 287 286 287 270 274 274 271 268 253 215 219 195 194 206 226 254 242 306 307 334 261 200 181 182 176 177 174 159 248 263 6 2 25 43 63 56 63 62 89 131 136 130
309 333 290 222 210 210 270 280 260 261 287 272 283 295 284 282 272 271 263 252 245 221 219 223 229 236 237 235 230 255 250 256 149 151 201 194 190 199 196 172 223 232 243 267 294 29 75 75 68 94 112 123 130 135
282 245 236 190 210 217 254 243 249 289 276 266 292 273 253 249 249 255 255 237 234 237 240 244 244 248 253 246 247 246 270 255 265 226 195 217 217 213 224 216 216 227 248 243 231 109 262 126 90 128 155 116 114 131
209 204 221 217 225 234 258 240 250 248 262 267 308 272 261 253 249 274 210 228 237 243 250 247 244 239 234 245 269 239 236 248 254 231 228 224 255 232 234 231 235 234 244 228 203 247 251 313 148 162 155 158 161 173
189 210 233 221 210 260 250 240 231 248 265 264 253 271 285 260 287 241 250 256 262 254 248 251 236 232 236 246 257 235 235 251 270 217 238 283 243 230 239 241 242 234 249 249 228 223 236 235 230 230 224 206 187 188
220 232 223 236 220 226 239 239 217 217 252 247 269 262 265 278 251 221 231 292 347 257 234 228 225 227 231 242 246 246 242 238 229 231 237 227 247 230 226 244 236 240 223 220 232 224 222 225 237 226 221 239 236 225
233 222 210 212 197 213 231 263 259 299 296 269 258 275 285 305 277 252 349 342 335 285 241 215 202 195 202 222 238 253 242 236 226 246 235 232 236 220 227 221 225 223 221 214 224 231 247 232 240 243 237 242 235 232
244 246 233 228 243 216 257 259 263 253 266 254 247 257 247 254 295 268 324 305 288 350 324 297 239 233 250 246 254 251 244 248 228 218 210 214 230 233 234 226 217 247 219 210 207 211 237 258 246 247 249 252 236 222
238 261 242 224 213 224 241 231 237 245 239 226 243 305 336 295 302 346 323 36 332 323 322 320 305 233 249 246 248 244 231 216 208 208 212 258 250 214 227 255 235 240 220 206 221 206 186 160 287 266 247 247 256 241
238 239 264 266 259 221 214 211 232 241 255 300 309 253 235 269 294 303 302 311 319 327 329 342 6 257 256 232 228 230 204 192 210 218 221 218 205 201 198 205 213 229 235 221 219 226 253 260 249 279 307 230 223 235
246 222 224 240 225 229 222 220 238 259 275 285 282 291 294 291 288 292 293 298 303 302 311 334 337 348 40 268 265 249 252 273 244 237 225 216 216 215 204 216 205 225 226 222 228 227 239 262 261 281 292 251 233 228
257 238 219 234 248 253 259 265 271 275 278 276 279 270 275 287 296 292 289 284 284 278 287 275 304 312 318 318 310 346 324 350 256 246 242 234 225 219 216 227 238 264 286 232 229 240 256 255 258 272 292 298 262 244
231 234 244 260 275 279 277 270 263 262 265 263 263 266 271 274 279 299 309 234 252 257 253 270 279 283 310 274 249 290 316 326 13 257 217 212 237 236 232 231 233 249 311 258 231 217 243 229 238 271 267 283 279 248
226 240 261 284 277 245 252 214 230 263 234 241 245 242 248 250 255 266 301 281 255 239 247 260 277 289 284 295 221 250 319 260 157 127 223 228 229 229 237 237 227 212 228 248 216 241 227 272 270 258 271 247 273 288